STARLINK-5184 (54087 NORAD) Tracking and Keplerian Element Data

This shows tracking and keplerian element data for the satellite.

Feedback or suggestion? Click here.




ElementValue
Catalog54087
NameSTARLINK-5184
Epoch Orbit549
Epoch Day325.33334491
Epoch Year2022
RAAN350.8904
Inclination53.2151
Eccentricity0.0004237
Argument of Perigee4.3024
Mean Anonmoly343.5246
Mean Motion15.73177611
Decay Rate0.00030746
L11 54087U 22136AN 22325.33334491 .00030746 00000+0 22282-3 0 9990
L22 54087 53.2151 350.8904 0004237 4.3024 343.5246 15.73177611 5495



Live tracking and technical data element details for STARLINK-5184 (NORAD 54087). STARLINK-5184 can be tracked NOW for your location showing map with azimuth and elevation plus other details from your city location.







IsCatalogInMostPopularTable: catalog: 54087, numindb: 1
Update: records affected: 1



GetName: 54087 STARLINK-5184

Hit Count: updated at: Mon, 28 Nov 2022 20:49:56 GMT